CW2798 Aduanas ES current weather conditions

sailwx.info

Wind from 255 at 6 knots gusting 10

Air temperature 26.1° C
Dewpoint 20.7° C

Last reported at 2014-Jul-23 19:45 UTC.
Time now 2014-Jul-23 20:14 UTC

Location: N 38°48' E 000°11'.
View on Google Maps.

See reports from other nearby stations

  
Tides and Currents Weather Stations Pressure Air Temp Water Temp Dewpoint Dewpoint Depression Visibility Wind Speed Wind Dir Waves Ship Positions
date/time (UTC)wind fromknots sea level pressurealtimeterstation pressurevisibilityair tempwater tempwave heightnotes
2014-Jul-23 19:45 255 6 gusting 10 26.1
2014-Jul-23 19:30 246 6 gusting 13 26.1
2014-Jul-23 19:15 253 6 gusting 11 26.7
2014-Jul-23 19:00 252 5 gusting 8 26.7
2014-Jul-23 18:45 238 7 gusting 11 26.7
2014-Jul-23 18:30 223 6 gusting 16 27.2
2014-Jul-23 18:15 250 8 gusting 16 27.8
2014-Jul-23 18:00 234 8 gusting 10 27.8
2014-Jul-23 17:45 228 9 gusting 18 28.3
2014-Jul-23 17:30 217 9 gusting 15 28.3
2014-Jul-23 17:15 235 8 gusting 14 28.9
2014-Jul-23 17:00 220 12 gusting 18 28.3
2014-Jul-23 16:45 225 11 gusting 18 28.3
2014-Jul-23 16:30 249 8 gusting 15 29.4
2014-Jul-23 16:15 255 7 gusting 13 29.4
2014-Jul-23 16:00 242 9 gusting 13 29.4
2014-Jul-23 15:45 227 8 gusting 15 30.0
2014-Jul-23 15:30 232 7 gusting 16 30.6
2014-Jul-23 15:15 223 5 gusting 9 30.0
2014-Jul-23 15:00 202 6 gusting 7 29.4
2014-Jul-23 14:45 209 6 gusting 13 30.6
2014-Jul-23 14:30 231 6 gusting 12 30.0
2014-Jul-23 14:15 217 6 gusting 9 29.4
2014-Jul-23 14:00 195 6 gusting 13 29.4
2014-Jul-23 13:45 189 5 gusting 11 30.0
2014-Jul-23 13:30 194 6 gusting 10 30.6
2014-Jul-23 13:15 188 5 gusting 8 30.6
2014-Jul-23 13:00 229 6 gusting 13 30.6
2014-Jul-23 12:45 251 9 gusting 14 30.6
2014-Jul-23 12:30 230 10 gusting 15 30.6
2014-Jul-23 12:15 237 9 gusting 14 30.6
2014-Jul-23 12:00 229 7 gusting 16 30.6
2014-Jul-23 11:45 223 7 gusting 17 30.0
2014-Jul-23 11:30 219 8 gusting 13 30.0
2014-Jul-23 11:15 210 6 gusting 14 29.4
2014-Jul-23 11:00 227 8 gusting 13 29.4
2014-Jul-23 10:45 207 6 gusting 10 29.4
2014-Jul-23 10:30 213 6 gusting 13 29.4
2014-Jul-23 10:15 176 6 gusting 10 29.4
2014-Jul-23 10:00 169 4 gusting 11 29.4
2014-Jul-23 09:45 209 1 gusting 6 29.4
2014-Jul-23 09:30 236 5 gusting 9 29.4
2014-Jul-23 09:15 232 6 gusting 7 28.9
2014-Jul-23 09:00 223 6 gusting 13 28.3
2014-Jul-23 08:45 258 4 gusting 9 27.8
2014-Jul-23 08:30 240 4 gusting 8 27.2
2014-Jul-23 08:15 244 6 gusting 9 26.7
2014-Jul-23 08:00 245 5 gusting 9 26.1
2014-Jul-23 07:45 226 4 gusting 7 26.1
2014-Jul-23 07:30 239 4 gusting 6 25.6
2014-Jul-23 07:15 263 2 gusting 6 25.0
2014-Jul-23 07:00 258 2 gusting 5 24.4
2014-Jul-23 06:45 261 1 gusting 3 24.4
2014-Jul-23 06:30 253 23.9
2014-Jul-23 06:15 22.8
2014-Jul-23 06:00 22.2
2014-Jul-23 05:45 21.7
2014-Jul-23 05:30 21.7
2014-Jul-23 05:15 21.1
2014-Jul-23 05:00 21.7
2014-Jul-23 04:45 21.1
2014-Jul-23 04:30 21.7
2014-Jul-23 04:15 22.2
2014-Jul-23 04:00 21.7
2014-Jul-23 03:45 21.7
2014-Jul-23 03:30 246 22.2
2014-Jul-23 03:15 23.3
2014-Jul-23 03:00 22.8
2014-Jul-23 02:45 22.8
2014-Jul-23 02:30 22.8
2014-Jul-23 02:15 23.3
2014-Jul-23 02:00 22.8
2014-Jul-23 01:45 23.3
2014-Jul-23 01:30 24.4
2014-Jul-23 01:15 24.4
2014-Jul-23 01:00 24.4
2014-Jul-23 00:45 24.4
2014-Jul-23 00:30 24.4
2014-Jul-23 00:15 24.4
2014-Jul-23 00:00 24.4
2014-Jul-22 23:45 24.4
2014-Jul-22 23:30 25.0
2014-Jul-22 23:15 25.0
2014-Jul-22 23:00 25.0
2014-Jul-22 22:45 25.0
2014-Jul-22 22:30 25.0
2014-Jul-22 22:15 25.0
2014-Jul-22 22:00 25.0
2014-Jul-22 21:45 229 0 gusting 5 25.0
2014-Jul-22 21:30 265 0 gusting 3 25.0
2014-Jul-22 21:15 257 1 gusting 5 25.0
2014-Jul-22 21:00 259 3 gusting 6 25.6
2014-Jul-22 20:45 255 3 gusting 8 25.6
2014-Jul-22 20:30 255 2 gusting 7 25.6
2014-Jul-22 20:15 229 4 gusting 8 25.6
2014-Jul-22 20:00 260 3 gusting 5 25.6
2014-Jul-22 19:45 245 2 gusting 6 25.6
2014-Jul-22 19:30 233 6 gusting 9 25.6
2014-Jul-22 19:15 235 6 gusting 12 25.6
2014-Jul-22 19:00 229 6 gusting 13 26.1
2014-Jul-22 18:45 241 6 gusting 12 26.1
2014-Jul-22 18:30 230 6 gusting 13 26.7
2014-Jul-22 18:15 231 7 gusting 13 26.7
2014-Jul-22 18:00 232 6 gusting 10 27.2
2014-Jul-22 17:45 227 6 gusting 14 27.2
2014-Jul-22 17:30 235 8 gusting 12 27.8
2014-Jul-22 17:15 214 11 gusting 17 27.2
2014-Jul-22 17:00 222 8 gusting 16 27.8
2014-Jul-22 16:45 225 11 gusting 19 27.8
2014-Jul-22 16:30 247 10 gusting 19 28.3
2014-Jul-22 16:15 245 9 gusting 12 28.9
2014-Jul-22 16:00 251 9 gusting 19 28.9
2014-Jul-22 15:45 225 8 gusting 13 28.3
2014-Jul-22 15:30 216 7 gusting 12 28.9
2014-Jul-22 15:15 222 5 gusting 12 29.4
2014-Jul-22 15:00 235 6 gusting 12 28.9
2014-Jul-22 14:45 213 6 gusting 16 28.9
2014-Jul-22 14:30 192 5 gusting 14 28.9
2014-Jul-22 14:15 214 6 gusting 12 28.9
2014-Jul-22 14:00 184 3 gusting 11 29.4
2014-Jul-22 13:45 183 5 gusting 9 28.3
2014-Jul-22 13:30 181 5 gusting 9 28.3
2014-Jul-22 13:15 201 3 gusting 7 28.3
2014-Jul-22 13:00 166 6 gusting 12 27.2
2014-Jul-22 12:45 159 6 gusting 10 27.2
2014-Jul-22 12:30 160 6 gusting 11 26.7
2014-Jul-22 12:15 200 6 gusting 11 27.8
2014-Jul-22 12:00 190 5 gusting 10 27.8
2014-Jul-22 11:45 219 4 gusting 10 28.3
2014-Jul-22 11:30 184 3 gusting 5 27.8
2014-Jul-22 11:15 094 2 gusting 7 26.1
2014-Jul-22 11:00 111 1 gusting 5 26.1
2014-Jul-22 10:45 095 0 gusting 4 26.1
2014-Jul-22 10:30 096 0 gusting 5 26.7
2014-Jul-22 10:15 079 0 gusting 4 27.2
2014-Jul-22 10:00 076 0 gusting 2 27.2
2014-Jul-22 09:45 26.7
2014-Jul-22 09:30 024 2 gusting 5 26.7
2014-Jul-22 09:15 007 5 gusting 6 26.1
2014-Jul-22 09:00 007 3 gusting 6 26.7
2014-Jul-22 08:45 033 4 gusting 6 26.7
2014-Jul-22 08:30 033 2 gusting 6 26.7
2014-Jul-22 08:15 015 3 gusting 6 26.7
2014-Jul-22 08:00 344 0 gusting 3 26.7
2014-Jul-22 07:45 337 2 gusting 6 26.1
2014-Jul-22 07:30 343 2 gusting 6 25.6
2014-Jul-22 07:15 347 2 gusting 5 25.6
2014-Jul-22 07:00 330 2 gusting 5 25.0
2014-Jul-22 06:45 344 2 gusting 7 24.4
2014-Jul-22 06:30 328 24.4
2014-Jul-22 06:15 23.3
2014-Jul-22 06:00 248 23.3
2014-Jul-22 05:45 22.8
2014-Jul-22 05:30 327 22.8
2014-Jul-22 05:15 251 0 gusting 3 22.8
2014-Jul-22 05:00 330 3 gusting 7 23.3
2014-Jul-22 04:45 337 5 gusting 10 23.3
2014-Jul-22 04:30 324 2 gusting 6 23.3
2014-Jul-22 04:15 334 1 gusting 7 22.8
2014-Jul-22 04:00 320 1 gusting 5 23.3
2014-Jul-22 03:45 266 1 gusting 5 23.3
2014-Jul-22 03:30 23.3
2014-Jul-22 03:15 017 0 gusting 6 23.3
2014-Jul-22 03:00 23.3
2014-Jul-22 02:45 22.8
2014-Jul-22 02:30 265 1 gusting 4 22.8
2014-Jul-22 02:15 255 1 gusting 3 22.8
2014-Jul-22 02:00 231 1 gusting 5 22.2
2014-Jul-22 01:45 257 1 gusting 6 22.8
2014-Jul-22 01:30 243 3 gusting 5 23.9
2014-Jul-22 01:15 297 0 gusting 6 23.3
2014-Jul-22 01:00 23.9
2014-Jul-22 00:45 23.3
2014-Jul-22 00:30 296 1 gusting 2 23.3
2014-Jul-22 00:15 23.9
2014-Jul-22 00:00 261 1 gusting 5 24.4
2014-Jul-21 23:45 267 4 gusting 7 24.4
2014-Jul-21 23:30 251 4 gusting 6 24.4
2014-Jul-21 23:15 265 4 gusting 7 24.4
2014-Jul-21 23:00 259 4 gusting 9 24.4
2014-Jul-21 22:45 256 5 gusting 8 24.4
2014-Jul-21 22:30 252 6 gusting 10 24.4
2014-Jul-21 22:15 275 5 gusting 8 24.4
2014-Jul-21 22:00 272 5 gusting 8 24.4
2014-Jul-21 21:45 270 5 gusting 7 24.4
2014-Jul-21 21:30 273 4 gusting 6 24.4
2014-Jul-21 21:15 270 0 gusting 3 24.4
2014-Jul-21 21:00 270 1 gusting 4 24.4
2014-Jul-21 20:45 270 1 gusting 4 25.0
2014-Jul-21 20:30 252 1 gusting 3 25.0
2014-Jul-21 20:15 241 3 gusting 6 25.0
2014-Jul-21 20:00 227 2 gusting 5 25.0